Вернуться в каталог

STARLINK-33803

АктивенСвязьVLEO
NORAD 63517·PAYLOAD·🇺🇸 United States

Запущен Apr 7, 2025 с Vandenberg Space Force Base

Loading…

Ближайшие Пролёты (ближайшие 24 часа)

TLE

СвежийSource: CelesTrak SupGP

Эпоха: Sep 15, 2026, 02:43 UTC

1 63517C 25071AA  26258.11368056  .00073555  00000+0  21736-2 0  2583
2 63517  53.1576 338.5681 0001187  93.7999 211.3392 15.34348303    14

Отслеживайте STARLINK-33803 в реальном времени с AllMySat

Download on the App Store